Weather History for Cleveland Burke, OH

Change the Weather History Date:

Tuesday, February 18, 2014

  Actual Average Record
Temperature  
Mean Temperature 33 °F -  
Max Temperature 42 °F 37 °F 60 °F (1997)
Min Temperature 24 °F 26 °F 10 °F (2006)
Degree Days  
Heating Degree Days 32    
Moisture  
Dew Point 25 °F    
Average Humidity 81    
Maximum Humidity 100    
Minimum Humidity 49    
Precipitation  
Precipitation 0.00 in - - ()
Sea Level Pressure  
Sea Level Pressure 29.85 in    
Wind  
Wind Speed 22 mph (SW)    
Max Wind Speed 37 mph    
Max Gust Speed 44 mph    
Visibility 4 miles    
Events Fog , Snow    
Averages and records for this station are not official NWS values.
T = Trace of Precipitation, MM = Missing Value Source: NWS Daily Summary

Daily Weather History Graph

Daily Weather History Graph

Search for Another Location

Airport:

Trip Planner

Search our weather history database for the weather conditions in past years. The results will help you decide how hot, cold, wet, or windy it might be!

Date:

Astronomy

Feb. 18, 2014 Rise Set
Actual Time 7:17 AM EST 6:04 PM EST
Civil Twilight 6:49 AM EST 6:32 PM EST
Nautical Twilight 6:17 AM EST 7:04 PM EST
Astronomical Twilight 5:45 AM EST 7:36 PM EST
Moon 9:59 PM EST (2/18) 8:46 AM EST (2/18)
Length of Visible Light 11h 42m
Length of Day
10h 46m
Waning Gibbous, 87% of the Moon is Illuminated
Feb 18
Waning Gibbous
Feb 22
Last Quarter
Mar 1
New
Mar 8
First Quarter
Mar 16
Full

Hourly Weather History & Observations

Time (EST) Temp. Windchill Dew Point Humidity Pressure Visibility Wind Dir Wind Speed Gust Speed Precip Events Conditions
12:53 AM 33.1 °F 20.3 °F 28.9 °F 85% 29.70 in 2.0 mi SW 24.2 mph 35.7 mph 0.00 in Snow Light Snow
1:00 AM 33.8 °F 21.6 °F 28.4 °F 81% 29.68 in 1.5 mi WSW 23.0 mph - 0.00 in Snow Light Snow
1:08 AM 32.0 °F 20.1 °F 30.2 °F 93% 29.68 in 1.2 mi SW 19.6 mph - 0.00 in Snow Light Snow
1:19 AM 32.0 °F 20.8 °F 30.2 °F 93% 29.68 in 0.8 mi SW 17.3 mph - 0.00 in Snow Light Snow
1:34 AM 32.0 °F 22.1 °F 30.2 °F 93% 29.67 in 2.0 mi SSW 13.8 mph - 0.00 in Snow Light Snow
1:39 AM 32.0 °F 20.8 °F 30.2 °F 93% 29.67 in 3.0 mi SSW 17.3 mph 25.3 mph 0.00 in Snow Light Snow
1:47 AM 32.0 °F 21.2 °F 28.4 °F 87% 29.68 in 1.8 mi SW 16.1 mph 25.3 mph 0.00 in Snow Light Snow
1:51 AM 32.0 °F 19.8 °F 28.4 °F 87% 29.68 in 0.8 mi SW 20.7 mph 25.3 mph 0.00 in Snow Light Snow
1:53 AM 32.0 °F 19.2 °F 28.9 °F 88% 29.70 in 0.8 mi SW 23.0 mph 29.9 mph 0.00 in Snow Light Snow
2:09 AM 30.2 °F 17.8 °F 30.2 °F 100% 29.68 in 1.2 mi SSW 19.6 mph 28.8 mph 0.00 in Snow Light Snow
2:23 AM 30.2 °F 15.4 °F 28.4 °F 93% 29.69 in 1.5 mi SW 28.8 mph 38.0 mph 0.00 in Snow Light Snow
2:51 AM 30.2 °F 16.5 °F 28.4 °F 93% 29.70 in 0.8 mi SW 24.2 mph 35.7 mph 0.00 in Snow Light Snow
2:53 AM 30.0 °F 16.6 °F 28.0 °F 92% 29.72 in 0.8 mi WSW 23.0 mph 35.7 mph 0.00 in Snow Light Snow
3:00 AM 30.2 °F 16.8 °F 28.4 °F 93% 29.70 in 1.0 mi WSW 23.0 mph 33.4 mph 0.00 in Snow Light Snow
3:42 AM 28.4 °F 14.1 °F 26.6 °F 93% 29.72 in 0.8 mi WSW 24.2 mph - 0.00 in Snow Light Snow
3:53 AM 28.9 °F 15.8 °F 27.0 °F 92% 29.75 in 0.8 mi WSW 20.7 mph - 0.00 in Snow Light Snow
4:25 AM 26.6 °F 9.8 °F 24.8 °F 93% 29.75 in 0.5 mi West 32.2 mph 40.3 mph 0.00 in Fog , Snow Snow
4:42 AM 26.6 °F 9.6 °F 24.8 °F 93% 29.77 in 0.5 mi West 33.4 mph 42.6 mph 0.00 in Fog , Snow Snow
4:49 AM 26.6 °F 10.6 °F 24.8 °F 93% 29.78 in 0.5 mi West 28.8 mph 40.3 mph 0.00 in Fog , Snow Snow
4:53 AM 26.1 °F 9.8 °F 24.1 °F 92% 29.80 in 0.5 mi West 28.8 mph 40.3 mph 0.00 in Fog , Snow Snow
5:23 AM 26.6 °F 10.8 °F 24.8 °F 93% 29.80 in 0.8 mi WSW 27.6 mph - 0.00 in Snow Light Snow
5:38 AM 26.6 °F 11.1 °F 24.8 °F 93% 29.81 in 1.2 mi WSW 26.5 mph 34.5 mph 0.00 in Snow Light Snow
5:51 AM 26.6 °F 10.8 °F 23.0 °F 86% 29.83 in 2.0 mi WSW 27.6 mph - 0.00 in Snow Light Snow
5:53 AM 26.1 °F 10.4 °F 23.0 °F 88% 29.85 in 2.0 mi WSW 26.5 mph - 0.00 in Snow Light Snow
6:02 AM 26.6 °F 11.7 °F 23.0 °F 86% 29.84 in 2.5 mi WSW 24.2 mph - 0.00 in Snow Light Snow
6:21 AM 26.6 °F 11.7 °F 23.0 °F 86% 29.85 in 1.2 mi WSW 24.2 mph 31.1 mph 0.00 in Snow Light Snow
6:33 AM 26.6 °F 10.6 °F 23.0 °F 86% 29.85 in 0.8 mi WSW 28.8 mph 35.7 mph 0.00 in Snow Light Snow
6:53 AM 26.1 °F 8.1 °F 24.1 °F 92% 29.89 in 0.5 mi West 36.8 mph 43.7 mph 0.00 in Fog , Snow Snow
7:12 AM 24.8 °F 8.7 °F 21.2 °F 86% 29.88 in 0.8 mi West 26.5 mph 38.0 mph 0.00 in Snow Light Snow
7:19 AM 24.8 °F 8.7 °F 21.2 °F 86% 29.89 in 1.0 mi West 26.5 mph 35.7 mph 0.00 in Snow Light Snow
7:32 AM 24.8 °F 9.6 °F 21.2 °F 86% 29.90 in 3.0 mi West 23.0 mph 28.8 mph 0.00 in Snow Light Snow
7:40 AM 26.6 °F 11.1 °F 21.2 °F 80% 29.91 in 2.0 mi West 26.5 mph 33.4 mph 0.00 in Snow Light Snow
7:53 AM 26.1 °F 10.1 °F 23.0 °F 88% 29.94 in 1.2 mi West 27.6 mph 33.4 mph 0.00 in Snow Light Snow
8:53 AM 26.1 °F 10.1 °F 21.9 °F 84% 29.98 in 2.0 mi West 27.6 mph - 0.00 in Snow Light Snow
9:04 AM 26.6 °F 10.8 °F 21.2 °F 80% 29.97 in 1.2 mi WSW 27.6 mph 35.7 mph 0.00 in Snow Light Snow
9:15 AM 26.6 °F 11.7 °F 21.2 °F 80% 29.97 in 3.0 mi West 24.2 mph 31.1 mph 0.00 in Snow Light Snow
9:33 AM 26.6 °F 11.7 °F 21.2 °F 80% 29.99 in 1.8 mi West 24.2 mph 29.9 mph 0.00 in Snow Light Snow
9:53 AM 26.1 °F 13.6 °F 23.0 °F 88% 30.02 in 1.2 mi WSW 16.1 mph - 0.00 in Snow Light Snow
10:09 AM 26.6 °F 13.8 °F 21.2 °F 80% 30.00 in 3.0 mi WSW 17.3 mph - 0.00 in Snow Light Snow
10:53 AM 27.0 °F 14.3 °F 21.0 °F 78% 30.04 in 10.0 mi WSW 17.3 mph - 0.00 in   Overcast
11:53 AM 28.9 °F 18.2 °F 19.9 °F 69% 30.06 in 10.0 mi WSW 13.8 mph - N/A   Scattered Clouds
12:05 PM 30.2 °F 18.5 °F 21.2 °F 69% 30.04 in 10.0 mi WSW 17.3 mph - N/A   Mostly Cloudy
12:34 PM 30.2 °F 18.1 °F 19.4 °F 64% 30.03 in 10.0 mi SW 18.4 mph - N/A   Scattered Clouds
12:53 PM 30.0 °F 17.5 °F 21.0 °F 69% 30.05 in 10.0 mi SW 19.6 mph - N/A   Scattered Clouds
1:53 PM 32.0 °F 21.2 °F 21.9 °F 66% 30.04 in 9.0 mi SW 16.1 mph - N/A   Clear
2:53 PM 34.0 °F 24.2 °F 25.0 °F 70% 30.03 in 8.0 mi SW 15.0 mph - N/A   Clear
3:53 PM 37.0 °F 29.3 °F 26.1 °F 65% 29.99 in 9.0 mi South 11.5 mph - N/A   Clear
4:53 PM 39.9 °F 32.9 °F 27.0 °F 60% 29.97 in 10.0 mi SSE 11.5 mph - N/A   Clear
5:53 PM 39.9 °F 32.9 °F 27.0 °F 60% 29.96 in 10.0 mi SSE 11.5 mph - N/A   Clear
6:53 PM 39.9 °F 30.8 °F 27.0 °F 60% 29.92 in 10.0 mi SSE 18.4 mph 24.2 mph N/A   Clear
7:53 PM 39.9 °F 30.5 °F 27.0 °F 60% 29.89 in 10.0 mi SSE 19.6 mph - N/A   Clear
8:53 PM 39.9 °F 30.8 °F 26.1 °F 58% 29.87 in 10.0 mi SSE 18.4 mph - N/A   Clear
9:53 PM 39.9 °F 30.8 °F 25.0 °F 55% 29.83 in 10.0 mi SSE 18.4 mph 25.3 mph N/A   Clear
10:53 PM 42.1 °F 33.9 °F 24.1 °F 49% 29.81 in 10.0 mi SSE 17.3 mph 24.2 mph N/A   Clear
11:53 PM 42.1 °F 33.6 °F 24.1 °F 49% 29.75 in 10.0 mi SSE 18.4 mph 27.6 mph N/A   Clear